| time (UTC) | temp F | wind direction | speed knots | gust knots | rain 1hr in | rain 24hr in | rain mn in | humidity % | barometer mb |
| 20260510164502 | 63 | 63 | 7.0 | 13.0 | 0.00 | 0.00 | 0.00 | 42 | 1012.5 |
| 20260510163001 | 64 | 78 | 6.1 | 15.6 | 0.00 | 0.00 | 0.00 | 40 | 1012.4 |
| 20260510161503 | 66 | 94 | 7.8 | 14.8 | 0.00 | 0.00 | 0.00 | 38 | 1012.2 |
| 20260510160009 | 65 | 83 | 7.8 | 13.9 | 0.00 | 0.00 | 0.00 | 37 | 1012.0 |
| 20260510154502 | 65 | 32 | 5.2 | 13.9 | 0.00 | 0.00 | 0.00 | 36 | 1012.4 |
| 20260510153003 | 64 | 55 | 7.8 | 13.0 | 0.00 | 0.00 | 0.00 | 34 | 1012.3 |
| 20260510151502 | 63 | 355 | 3.5 | 12.2 | 0.00 | 0.00 | 0.00 | 34 | 1012.2 |
| 20260510150002 | 63 | 44 | 4.3 | 9.6 | 0.00 | 0.00 | 0.00 | 33 | 1011.8 |
| 20260510144619 | 62 | 26 | 3.5 | 8.7 | 0.00 | 0.00 | 0.00 | 32 | 1011.6 |
| 20260510143100 | 61 | 72 | 2.6 | 8.7 | 0.00 | 0.00 | 0.00 | 34 | 1011.8 |
| 20260510140100 | 61 | 22 | 1.7 | 5.2 | 0.00 | 0.00 | 0.00 | 33 | 1011.6 |
| 20260510140003 | 61 | 55 | 1.7 | 4.3 | 0.00 | 0.00 | 0.00 | 34 | 1011.6 |
| 20260510134501 | 60 | 231 | 0.9 | 7.8 | 0.00 | 0.00 | 0.00 | 34 | 1011.6 |
| 20260510133100 | 60 | 217 | 1.7 | 7.0 | 0.00 | 0.00 | 0.00 | 34 | 1011.0 |
| 20260510131603 | 57 | 24 | 5.2 | 12.2 | 0.00 | 0.00 | 0.00 | 36 | 1011.1 |
| 20260510130101 | 52 | 76 | 1.7 | 6.1 | 0.00 | 0.00 | 0.00 | 38 | 1010.8 |
| 20260510124614 | 51 | 259 | 3.5 | 7.0 | 0.00 | 0.00 | 0.00 | 40 | 1010.0 |
| 20260510123100 | 50 | 248 | 1.7 | 3.5 | 0.00 | 0.00 | 0.00 | 41 | 1009.8 |
| 20260510121600 | 49 | 271 | 3.5 | 6.1 | 0.00 | 0.00 | 0.00 | 42 | 1009.2 |
| 20260510120100 | 50 | 273 | 4.3 | 6.1 | 0.00 | 0.00 | 0.00 | 42 | 1009.0 |
| 20260510120002 | 50 | 261 | 4.3 | 6.1 | 0.00 | 0.00 | 0.00 | 42 | 1009.0 |
| 20260510114501 | 50 | 264 | 4.3 | 7.0 | 0.00 | 0.00 | 0.00 | 41 | 1009.0 |
| 20260510113004 | 51 | 267 | 5.2 | 9.6 | 0.00 | 0.00 | 0.00 | 40 | 1008.8 |
| 20260510111502 | 50 | 267 | 5.2 | 8.7 | 0.00 | 0.00 | 0.00 | 41 | 1008.8 |
| 20260510110004 | 50 | 272 | 4.3 | 6.1 | 0.00 | 0.00 | 0.00 | 42 | 1008.7 |
| 20260510104605 | 50 | 269 | 4.3 | 7.0 | 0.00 | 0.00 | 0.00 | 42 | 1008.6 |
| 20260510103002 | 49 | 277 | 2.6 | 6.1 | 0.00 | 0.00 | 0.00 | 43 | 1008.2 |
| 20260510101502 | 50 | 271 | 3.5 | 5.2 | 0.00 | 0.00 | 0.00 | 42 | 1008.3 |
| 20260510100005 | 50 | 265 | 4.3 | 8.7 | 0.00 | 0.00 | 0.00 | 40 | 1008.3 |
| 20260510094613 | 51 | 250 | 5.2 | 7.8 | 0.00 | 0.00 | 0.00 | 40 | 1008.3 |
| 20260510093120 | 51 | 262 | 5.2 | 9.6 | 0.00 | 0.00 | 0.00 | 39 | 1008.1 |
| 20260510091602 | 51 | 264 | 5.2 | 8.7 | 0.00 | 0.00 | 0.00 | 39 | 1008.1 |
| 20260510090100 | 52 | 259 | 4.3 | 8.7 | 0.00 | 0.00 | 0.00 | 39 | 1008.0 |
| 20260510090002 | 52 | 275 | 5.2 | 8.7 | 0.00 | 0.00 | 0.00 | 38 | 1008.0 |
| 20260510084501 | 52 | 268 | 4.3 | 7.8 | 0.00 | 0.00 | 0.00 | 38 | 1007.9 |
| 20260510083002 | 52 | 264 | 3.5 | 9.6 | 0.00 | 0.00 | 0.00 | 37 | 1007.8 |
| 20260510081502 | 52 | 263 | 4.3 | 7.8 | 0.00 | 0.00 | 0.00 | 37 | 1007.8 |
| 20260510080001 | 51 | 267 | 4.3 | 11.3 | 0.00 | 0.00 | 0.00 | 38 | 1008.0 |
| 20260510074600 | 52 | 272 | 5.2 | 7.8 | 0.00 | 0.00 | 0.00 | 36 | 1008.1 |
| 20260510073059 | 52 | 265 | 5.2 | 7.8 | 0.00 | 0.00 | 0.00 | 37 | 1008.2 |
| 20260510071600 | 51 | 259 | 5.2 | 8.7 | 0.00 | 0.00 | 0.00 | 37 | 1008.3 |
| 20260510070100 | 51 | 256 | 4.3 | 7.8 | 0.00 | 0.00 | 0.00 | 37 | 1008.3 |
| 20260510070003 | 51 | 257 | 5.2 | 7.8 | 0.00 | 0.00 | 0.00 | 37 | 1008.3 |
| 20260510064502 | 52 | 265 | 4.3 | 7.0 | 0.00 | 0.00 | 0.00 | 36 | 1008.3 |
| 20260510063003 | 52 | 263 | 4.3 | 8.7 | 0.00 | 0.00 | 0.00 | 35 | 1008.4 |
| 20260510061501 | 51 | 287 | 4.3 | 7.0 | 0.00 | 0.00 | 0.00 | 36 | 1008.6 |
| 20260510060005 | 50 | 273 | 2.6 | 6.1 | 0.00 | 0.00 | 0.00 | 38 | 1008.6 |
| 20260510054502 | 51 | 256 | 0.9 | 4.3 | 0.00 | 0.00 | 0.00 | 36 | 1008.5 |
| 20260510053008 | 52 | 279 | 1.7 | 6.1 | 0.00 | 0.00 | 0.00 | 37 | 1008.7 |
| 20260510051503 | 52 | 240 | 2.6 | 6.1 | 0.00 | 0.00 | 0.00 | 36 | 1008.9 |
| 20260510050004 | 53 | 360 | 2.6 | 6.1 | 0.00 | 0.00 | 0.00 | 35 | 1008.9 |
| 20260510044502 | 53 | 277 | 2.6 | 6.1 | 0.00 | 0.00 | 0.00 | 35 | 1008.9 |
| 20260510043002 | 53 | 273 | 2.6 | 4.3 | 0.00 | 0.00 | 0.00 | 35 | 1008.9 |
| 20260510041501 | 53 | 280 | 2.6 | 5.2 | 0.00 | 0.00 | 0.00 | 34 | 1008.9 |
| 20260510040002 | 55 | 266 | 1.7 | 3.5 | 0.00 | 0.00 | 0.00 | 33 | 1008.9 |
| 20260510034502 | 56 | 267 | 2.6 | 6.1 | 0.00 | 0.00 | 0.00 | 31 | 1008.9 |
| 20260510033002 | 57 | 258 | 2.6 | 5.2 | 0.00 | 0.00 | 0.00 | 30 | 1008.8 |
| 20260510031508 | 58 | 265 | 1.7 | 3.5 | 0.00 | 0.00 | 0.00 | 29 | 1008.6 |
| 20260510030002 | 60 | 279 | 1.7 | 2.6 | 0.00 | 0.00 | 0.00 | 27 | 1008.4 |
| 20260510024502 | 64 | 269 | 0.9 | 2.6 | 0.00 | 0.00 | 0.00 | 24 | 1008.3 |
| 20260510023004 | 66 | 275 | 0.9 | 2.6 | 0.00 | 0.00 | 0.00 | 22 | 1008.1 |
| 20260510021505 | 67 | 260 | 0.9 | 2.6 | 0.00 | 0.00 | 0.00 | 21 | 1007.7 |
| 20260510020002 | 69 | 282 | 1.7 | 2.6 | 0.00 | 0.00 | 0.00 | 20 | 1007.7 |
| 20260510014503 | 70 | 273 | 1.7 | 4.3 | 0.00 | 0.00 | 0.00 | 19 | 1007.4 |
| 20260510013002 | 72 | 250 | 2.6 | 7.0 | 0.00 | 0.00 | 0.00 | 18 | 1007.2 |
| 20260510011502 | 73 | 257 | 4.3 | 11.3 | 0.00 | 0.00 | 0.00 | 17 | 1007.2 |
| 20260510010004 | 74 | 226 | 2.6 | 10.4 | 0.00 | 0.00 | 0.00 | 17 | 1007.2 |
| 20260510004501 | 75 | 296 | 3.5 | 9.6 | 0.00 | 0.00 | 0.00 | 17 | 1007.3 |
| 20260510003001 | 75 | 245 | 6.1 | 11.3 | 0.00 | 0.00 | 0.00 | 16 | 1007.3 |
| 20260510001501 | 75 | 265 | 7.0 | 13.9 | 0.00 | 0.00 | 0.00 | 16 | 1007.3 |
| 20260510000004 | 76 | 298 | 6.1 | 13.0 | 0.00 | 0.00 | 0.00 | 15 | 1007.5 |
| 20260509234502 | 76 | 274 | 7.0 | 13.0 | 0.00 | 0.00 | 0.00 | 16 | 1007.4 |
| 20260509233001 | 76 | 273 | 7.8 | 13.9 | 0.00 | 0.00 | 0.00 | 16 | 1007.5 |
| 20260509231501 | 75 | 258 | 7.8 | 15.6 | 0.00 | 0.00 | 0.00 | 15 | 1007.3 |
| 20260509230005 | 76 | 221 | 7.0 | 18.2 | 0.00 | 0.00 | 0.00 | 16 | 1007.7 |
| 20260509224501 | 76 | 251 | 9.6 | 17.4 | 0.00 | 0.00 | 0.00 | 16 | 1007.7 |
| 20260509223002 | 77 | 290 | 7.8 | 15.6 | 0.00 | 0.00 | 0.00 | 14 | 1007.6 |
| 20260509221502 | 77 | 267 | 8.7 | 15.6 | 0.00 | 0.00 | 0.00 | 14 | 1007.8 |
| 20260509220005 | 77 | 283 | 7.0 | 13.9 | 0.00 | 0.00 | 0.00 | 15 | 1008.1 |
| 20260509214502 | 76 | 279 | 7.8 | 16.5 | 0.00 | 0.00 | 0.00 | 15 | 1008.0 |
| 20260509213003 | 78 | 257 | 7.0 | 13.0 | 0.00 | 0.00 | 0.00 | 15 | 1008.2 |
| 20260509211501 | 77 | 290 | 5.2 | 13.9 | 0.00 | 0.00 | 0.00 | 15 | 1008.5 |
| 20260509210003 | 77 | 243 | 5.2 | 13.9 | 0.00 | 0.00 | 0.00 | 16 | 1008.8 |
| 20260509204502 | 78 | 301 | 3.5 | 12.2 | 0.00 | 0.00 | 0.00 | 15 | 1008.8 |
| 20260509203004 | 77 | 262 | 5.2 | 13.0 | 0.00 | 0.00 | 0.00 | 15 | 1009.0 |
| 20260509201500 | 77 | 257 | 7.8 | 13.9 | 0.00 | 0.00 | 0.00 | 15 | 1009.1 |
| 20260509200004 | 77 | 275 | 7.8 | 20.9 | 0.00 | 0.00 | 0.00 | 16 | 1009.2 |
| 20260509194502 | 77 | 241 | 6.1 | 13.0 | 0.00 | 0.00 | 0.00 | 16 | 1009.1 |
| 20260509193002 | 77 | 311 | 3.5 | 8.7 | 0.00 | 0.00 | 0.00 | 16 | 1009.2 |
| 20260509191500 | 74 | 236 | 5.2 | 12.2 | 0.00 | 0.00 | 0.00 | 18 | 1009.4 |
| 20260509190001 | 74 | 255 | 2.6 | 7.0 | 0.00 | 0.00 | 0.00 | 17 | 1009.3 |
| 20260509184602 | 74 | 350 | 2.6 | 7.8 | 0.00 | 0.00 | 0.00 | 19 | 1009.5 |
| 20260509183103 | 74 | 51 | 0.9 | 6.1 | 0.00 | 0.00 | 0.00 | 19 | 1009.6 |
| 20260509181603 | 75 | 119 | 1.7 | 8.7 | 0.00 | 0.00 | 0.00 | 17 | 1010.0 |
| 20260509180003 | 75 | 98 | 0.9 | 8.7 | 0.00 | 0.00 | 0.00 | 15 | 1010.1 |
| 20260509174621 | 76 | 315 | 5.2 | 9.6 | 0.00 | 0.00 | 0.00 | 15 | 1010.4 |
| 20260509173102 | 75 | 332 | 3.5 | 0.0 | 2.75 | 0.00 | 0.00 | 15 | 1010.3 |
| 20260509171601 | 75 | 257 | 0.9 | 11.3 | 0.00 | 0.00 | 0.00 | 15 | 1010.5 |
| 20260509170109 | 74 | 221 | 4.3 | 9.6 | 0.00 | 0.00 | 0.00 | 17 | 1010.5 |
| 20260509170005 | 74 | 261 | 4.3 | 9.6 | 0.00 | 0.00 | 0.00 | 17 | 1010.5 |